| time (UTC) | temp F | wind direction | speed knots | gust knots | rain 1hr in | rain 24hr in | rain mn in | humidity % | barometer mb |
| 20260831124518 | 73 | 157 | 0.9 | 2.6 | 0.00 | 0.00 | 0.00 | 82 | 1019.0 |
| 20260831123021 | 72 | 166 | 1.7 | 3.5 | 0.00 | 0.00 | 0.00 | 83 | 1018.8 |
| 20260831121512 | 71 | 163 | 1.7 | 2.6 | 0.00 | 0.00 | 0.00 | 84 | 1018.5 |
| 20260831120009 | 0 | 0.0 | 0.0 | 0.00 | 0.00 | 0.00 | 1018.3 | ||
| 20260831114559 | 0 | 0.0 | 0.0 | 0.00 | 0.00 | 0.00 | 1018.2 | ||
| 20260831113058 | 0 | 0.0 | 0.0 | 0.00 | 0.00 | 0.00 | 1018.2 | ||
| 20260831111552 | 0 | 0.0 | 0.0 | 0.00 | 0.00 | 0.00 | 1018.0 | ||
| 20260831110043 | 0 | 0.0 | 0.0 | 0.00 | 0.00 | 0.00 | 1018.1 | ||
| 20260831104539 | 0 | 0.0 | 0.0 | 0.00 | 0.00 | 0.00 | 1018.1 | ||
| 20260831103033 | 72 | 192 | 2.6 | 4.3 | 0.00 | 0.00 | 0.00 | 82 | 1017.9 |
| 20260831101530 | 71 | 161 | 2.6 | 4.3 | 0.00 | 0.00 | 0.00 | 83 | 1017.9 |
| 20260831100041 | 72 | 152 | 1.7 | 4.3 | 0.00 | 0.00 | 0.00 | 83 | 1017.9 |
| 20260831094534 | 71 | 163 | 0.0 | 1.7 | 0.00 | 0.00 | 0.00 | 84 | 1017.9 |
| 20260831093042 | 70 | 156 | 0.0 | 1.7 | 0.00 | 0.00 | 0.00 | 86 | 1017.9 |
| 20260831091524 | 69 | 165 | 0.0 | 0.0 | 0.00 | 0.00 | 0.00 | 87 | 1017.8 |
| 20260831090020 | 70 | 165 | 0.0 | 0.0 | 0.00 | 0.00 | 0.00 | 87 | 1017.7 |
| 20260831084513 | 71 | 165 | 0.0 | 0.0 | 0.00 | 0.00 | 0.00 | 85 | 1017.6 |
| 20260831083011 | 72 | 165 | 0.0 | 1.7 | 0.00 | 0.00 | 0.00 | 83 | 1017.5 |
| 20260831081510 | 72 | 160 | 0.0 | 2.6 | 0.00 | 0.00 | 0.00 | 84 | 1017.3 |
| 20260831080005 | 72 | 163 | 0.0 | 0.9 | 0.00 | 0.00 | 0.00 | 85 | 1017.2 |
| 20260831074503 | 72 | 166 | 0.0 | 0.9 | 0.00 | 0.00 | 0.00 | 84 | 1017.3 |
| 20260831073057 | 74 | 166 | 0.0 | 1.7 | 0.00 | 0.00 | 0.00 | 82 | 1017.4 |
| 20260831071554 | 74 | 141 | 1.7 | 3.5 | 0.00 | 0.00 | 0.00 | 81 | 1017.5 |
| 20260831070049 | 75 | 162 | 1.7 | 4.3 | 0.00 | 0.00 | 0.00 | 80 | 1017.5 |
| 20260831064545 | 76 | 162 | 0.9 | 3.5 | 0.00 | 0.00 | 0.00 | 79 | 1017.6 |
| 20260831063042 | 76 | 164 | 1.7 | 6.1 | 0.00 | 0.00 | 0.00 | 78 | 1017.7 |
| 20260831061542 | 76 | 154 | 2.6 | 5.2 | 0.00 | 0.00 | 0.00 | 78 | 1017.8 |
| 20260831060038 | 76 | 153 | 0.0 | 2.6 | 0.00 | 0.00 | 0.00 | 78 | 1017.8 |
| 20260831054533 | 76 | 139 | 0.9 | 2.6 | 0.00 | 0.00 | 0.00 | 78 | 1017.7 |
| 20260831053034 | 77 | 168 | 2.6 | 5.2 | 0.00 | 0.00 | 0.00 | 77 | 1017.8 |
| 20260831051532 | 77 | 160 | 2.6 | 5.2 | 0.00 | 0.00 | 0.00 | 76 | 1017.6 |
| 20260831050024 | 78 | 157 | 0.9 | 2.6 | 0.00 | 0.00 | 0.00 | 77 | 1017.6 |
| 20260831044532 | 78 | 174 | 1.7 | 5.2 | 0.00 | 0.00 | 0.00 | 77 | 1017.5 |
| 20260831043021 | 78 | 160 | 0.0 | 2.6 | 0.00 | 0.00 | 0.00 | 77 | 1017.3 |
| 20260831041527 | 78 | 159 | 0.9 | 3.5 | 0.00 | 0.00 | 0.00 | 77 | 1017.4 |
| 20260831040020 | 79 | 145 | 1.7 | 5.2 | 0.00 | 0.00 | 0.00 | 77 | 1017.3 |
| 20260831034512 | 79 | 154 | 3.5 | 6.1 | 0.00 | 0.00 | 0.00 | 77 | 1017.2 |
| 20260831033018 | 80 | 171 | 3.5 | 7.0 | 0.00 | 0.00 | 0.00 | 78 | 1017.3 |
| 20260831031508 | 80 | 188 | 2.6 | 6.1 | 0.00 | 0.00 | 0.00 | 78 | 1017.2 |
| 20260831030006 | 80 | 156 | 0.9 | 4.3 | 0.00 | 0.00 | 0.00 | 78 | 1017.2 |
| 20260831024503 | 81 | 200 | 0.9 | 4.3 | 0.00 | 0.00 | 0.00 | 77 | 1017.3 |
| 20260831023006 | 81 | 187 | 1.7 | 5.2 | 0.00 | 0.00 | 0.00 | 77 | 1017.1 |
| 20260831021502 | 81 | 144 | 1.7 | 4.3 | 0.00 | 0.00 | 0.00 | 77 | 1017.1 |
| 20260831020100 | 82 | 166 | 1.7 | 4.3 | 0.00 | 0.00 | 0.00 | 76 | 1017.0 |
| 20260831014558 | 83 | 173 | 1.7 | 6.1 | 0.00 | 0.00 | 0.00 | 75 | 1017.0 |
| 20260831013056 | 83 | 178 | 0.9 | 7.0 | 0.00 | 0.00 | 0.00 | 74 | 1016.8 |
| 20260831011557 | 84 | 145 | 1.7 | 4.3 | 0.00 | 0.00 | 0.00 | 73 | 1016.6 |
| 20260831004549 | 85 | 169 | 1.7 | 3.5 | 0.00 | 0.00 | 0.00 | 72 | 1016.4 |
| 20260831003045 | 86 | 190 | 0.0 | 2.6 | 0.00 | 0.00 | 0.00 | 71 | 1016.4 |
| 20260831001544 | 87 | 186 | 0.9 | 4.3 | 0.00 | 0.00 | 0.00 | 71 | 1016.5 |
| 20260831000043 | 88 | 178 | 1.7 | 3.5 | 0.00 | 0.00 | 0.00 | 70 | 1016.4 |
| 20260830234539 | 89 | 263 | 2.6 | 6.1 | 0.00 | 0.00 | 0.00 | 69 | 1016.5 |
| 20260830233040 | 90 | 176 | 2.6 | 8.7 | 0.00 | 0.00 | 0.00 | 68 | 1016.7 |
| 20260830231535 | 92 | 162 | 1.7 | 6.1 | 0.00 | 0.00 | 0.00 | 65 | 1016.7 |
| 20260830230033 | 93 | 185 | 2.6 | 7.0 | 0.00 | 0.00 | 0.00 | 64 | 1016.6 |
| 20260830224530 | 93 | 262 | 3.5 | 7.8 | 0.00 | 0.00 | 0.00 | 63 | 1016.5 |
| 20260830223033 | 94 | 204 | 0.9 | 7.0 | 0.00 | 0.00 | 0.00 | 61 | 1016.5 |
| 20260830221626 | 95 | 199 | 1.7 | 7.0 | 0.00 | 0.00 | 0.00 | 61 | 1016.5 |
| 20260830220024 | 95 | 163 | 0.9 | 3.5 | 0.00 | 0.00 | 0.00 | 61 | 1016.4 |
| 20260830214522 | 95 | 160 | 2.6 | 6.1 | 0.00 | 0.00 | 0.00 | 60 | 1016.4 |
| 20260830213016 | 95 | 261 | 1.7 | 5.2 | 0.00 | 0.00 | 0.00 | 60 | 1016.5 |
| 20260830211513 | 95 | 225 | 0.9 | 5.2 | 0.00 | 0.00 | 0.00 | 59 | 1016.6 |
| 20260830210010 | 95 | 177 | 2.6 | 7.0 | 0.00 | 0.00 | 0.00 | 59 | 1016.7 |
| 20260830204504 | 95 | 145 | 1.7 | 8.7 | 0.00 | 0.00 | 0.00 | 58 | 1016.8 |
| 20260830203100 | 95 | 214 | 1.7 | 7.8 | 0.00 | 0.00 | 0.00 | 59 | 1016.9 |
| 20260830201603 | 95 | 234 | 0.9 | 7.8 | 0.00 | 0.00 | 0.00 | 58 | 1017.0 |
| 20260830200052 | 95 | 267 | 0.9 | 6.1 | 0.00 | 0.00 | 0.00 | 59 | 1017.3 |
| 20260830194548 | 95 | 179 | 3.5 | 7.0 | 0.00 | 0.00 | 0.00 | 58 | 1017.5 |
| 20260830193045 | 94 | 149 | 0.0 | 5.2 | 0.00 | 0.00 | 0.00 | 59 | 1017.6 |
| 20260830191542 | 94 | 196 | 0.9 | 7.0 | 0.00 | 0.00 | 0.00 | 59 | 1017.8 |
| 20260830190038 | 94 | 276 | 0.9 | 7.8 | 0.00 | 0.00 | 0.00 | 60 | 1017.9 |
| 20260830184539 | 93 | 184 | 1.7 | 6.1 | 0.00 | 0.00 | 0.00 | 59 | 1018.0 |
| 20260830183031 | 93 | 159 | 4.3 | 7.8 | 0.00 | 0.00 | 0.00 | 61 | 1017.9 |
| 20260830181526 | 93 | 88 | 1.7 | 8.7 | 0.00 | 0.00 | 0.00 | 59 | 1018.1 |
| 20260830180021 | 92 | 294 | 2.6 | 10.4 | 0.00 | 0.00 | 0.00 | 61 | 1018.3 |
| 20260830174519 | 91 | 178 | 3.5 | 7.0 | 0.00 | 0.00 | 0.00 | 62 | 1018.5 |
| 20260830173014 | 92 | 268 | 0.0 | 3.5 | 0.00 | 0.00 | 0.00 | 61 | 1018.9 |
| 20260830171509 | 90 | 317 | 1.7 | 7.8 | 0.00 | 0.00 | 0.00 | 63 | 1018.8 |
| 20260830170007 | 90 | 243 | 2.6 | 7.8 | 0.00 | 0.00 | 0.00 | 62 | 1019.0 |
| 20260830164503 | 89 | 270 | 2.6 | 7.0 | 0.00 | 0.00 | 0.00 | 62 | 1019.2 |
| 20260830163103 | 88 | 270 | 3.5 | 8.7 | 0.00 | 0.00 | 0.00 | 63 | 1019.1 |
| 20260830161618 | 88 | 189 | 1.7 | 6.1 | 0.00 | 0.00 | 0.00 | 64 | 1019.2 |
| 20260830160054 | 87 | 280 | 1.7 | 8.7 | 0.00 | 0.00 | 0.00 | 68 | 1019.2 |
| 20260830154548 | 86 | 246 | 1.7 | 7.8 | 0.00 | 0.00 | 0.00 | 67 | 1019.2 |
| 20260830153044 | 85 | 259 | 2.6 | 9.6 | 0.00 | 0.00 | 0.00 | 69 | 1019.0 |
| 20260830151540 | 84 | 182 | 1.7 | 5.2 | 0.00 | 0.00 | 0.00 | 71 | 1018.9 |
| 20260830150105 | 83 | 187 | 3.5 | 7.0 | 0.00 | 0.00 | 0.00 | 70 | 1018.9 |
| 20260830144533 | 82 | 273 | 2.6 | 9.6 | 0.00 | 0.00 | 0.00 | 72 | 1019.0 |
| 20260830143026 | 81 | 125 | 0.0 | 5.2 | 0.00 | 0.00 | 0.00 | 74 | 1018.9 |
| 20260830141521 | 80 | 261 | 0.9 | 5.2 | 0.00 | 0.00 | 0.00 | 75 | 1019.0 |
| 20260830140016 | 79 | 277 | 1.7 | 5.2 | 0.00 | 0.00 | 0.00 | 76 | 1019.0 |
| 20260830134521 | 78 | 185 | 1.7 | 3.5 | 0.00 | 0.00 | 0.00 | 76 | 1019.0 |
| 20260830133007 | 76 | 171 | 1.7 | 4.3 | 0.00 | 0.00 | 0.00 | 77 | 1019.1 |
| 20260830131601 | 74 | 150 | 0.0 | 0.0 | 0.00 | 0.00 | 0.00 | 78 | 1019.2 |
| 20260830130108 | 72 | 149 | 0.0 | 0.0 | 0.00 | 0.00 | 0.00 | 79 | 1019.3 |